World > North America > United States > Texas

Hourly Smithland, TX Regional Weather

Feedback E-mail the Weather

Quick WX

Smithland, TX Weather Maps

°F °C°F °C
Smithland Weather Map
UTC Time: 7/4/2022, 14:38
Your Time:

Smithland, TX Regional Weather

Expires:202207041500;;669158
ASUS44 KFWD 041415
RWRTX 
NORTH TEXAS HOURLY WEATHER ROUNDUP
NATIONAL WEATHER SERVICE FORT WORTH TX
900 AM CDT MON JUL 04 2022

NOTE: "FAIR" INDICATES FEW OR NO CLOUDS BELOW 12,000 FEET WITH NO
SIGNIFICANT WEATHER AND/OR OBSTRUCTIONS TO VISIBILITY.


TXZ095>097-106>112-122>126-135>138-148>153-164>167-041500-
EAST TEXAS
  
CITY           SKY/WX    TMP DP  RH WIND       PRES   REMARKS
PARIS          LGT RAIN  86  73  65 S8        30.06R HX  93           
SULPHUR SPRNGS FAIR      85  69  58 SW13      30.08R                  
MOUNT PLEASANT FAIR      84  73  70 SW9       30.07R HX  91           
GILMER         FAIR      82  70  66 S9        30.08R                  
MINEOLA        FAIR      82  73  74 S6        30.07S                  
TYLER          FAIR      83  73  72 SW12      30.07R                  
LONGVIEW       FAIR      84  74  71 SW10      30.07R HX  91           
MARSHALL       FAIR      83  74  75 SW9       30.10S                  
ATHENS         PTSUNNY   81  72  74 SW5       30.07R                  
PALESTINE      CLOUDY    81  75  83 SW8       30.08R                  
JACKSONVILLE   PTSUNNY   80  74  80 SW7       30.11S                  
HENDERSON      PTSUNNY   84  70  61 SW8       30.10R                  
NACOGDOCHES    PTSUNNY   81  78  91 W5        30.11R                  
LUFKIN         PTSUNNY   81  76  84 CALM      30.09R                  
$$

SUPPLEMENTAL OBSERVATIONS (NWS FORT WORTH AREA)
  
CITY           SKY/WX    TMP DP  RH WIND       PRES   REMARKS
CADDO GRASSLND   N/A     84  72  65 S9          N/A                   
LBJ GRASSLAND    N/A     81  72  74 S7          N/A                   
POSSUM KINGDOM   N/A     82  68  61 S7          N/A                   
GRANBURY         N/A     84  66  54 S13         N/A                   
COMANCHE         N/A     81  66  61 S14         N/A                   
MCGREGOR         N/A     82  72  69 S8G20       N/A                   
TEMPLE           N/A     79  73  83 S8          N/A                   
LAKE LIMESTONE   N/A     82  75  78 S10G18      N/A                   
PALESTINE        N/A     82  72  69 S6          N/A                   
$$

SUPPLEMENTAL OBSERVATIONS (NWS NORMAN AREA)
  
CITY           SKY/WX    TMP DP  RH WIND       PRES   REMARKS
GOODLETT         N/A     82  65  56 S6        30.02S                  
ODELL            N/A     82  70  68 S7        30.04S                  
CROWELL          N/A     86  68  55 S12       30.03S                  
KNOX CITY        N/A     84  66  53 S16       30.03S                  
SEYMOUR          N/A     83  69  62 S10       30.03S                  
MILLERS CREEK    N/A     82  66  57 S10         N/A                   
$$

SUPPLEMENTAL OBSERVATIONS (NWS SAN ANGELO AREA)
  
CITY           SKY/WX    TMP DP  RH WIND       PRES   REMARKS
WEINERT          N/A     83  66  55 S13       30.04S                  
HASKELL          N/A     83  66  57 S15       30.03S                  
THROCKMORTON     N/A     83  68  62 S8        30.04R                  
STAMFORD         N/A     84  67  55 SW18      30.05R                  
CLYDE            N/A     79  66  65 S13       30.09S                  
HAMBY            N/A     81  64  57 S15         N/A                   
IVIE RESERVOIR   N/A     79  64  61 SE10        N/A                   
COLORADO BEND    N/A     81  68  65 S10         N/A                   
$$

SUPPLEMENTAL OBSERVATIONS (NWS SHREVEPORT AREA)
  
CITY           SKY/WX    TMP DP  RH WIND       PRES   REMARKS
TEXARKANA        N/A     84  75  74 S2          N/A  HX  92           
LINDEN           N/A     84  73  70 S3          N/A  HX  91           
CADDO LAKE       N/A     86  73  66 W2          N/A  HX  93           
LUFKIN           N/A     82  77  83 MISG        N/A  HX  91           
N SABINE NF      N/A     82  75  78 MISG        N/A                   
$$

SUPPLEMENTAL OBSERVATIONS ARE A COLLECTION OF AUTOMATED INSTRUMENTS
THAT ARE MAINTAINED BY A VARIETY OF FEDERAL AND STATE AGENCIES. 
CERTAIN ELEMENTS...SUCH AS HUMIDITY VALUES AND SUSTAINED WIND 
SPEEDS...MAY BE APPROXIMATED.

  

SKY/WX - Weather  TMP - Temperature  DP - Dew Point  RH - Humidity
WIND - Wind Direction/Speed PRES - Barometric Pressure VSB - Visibility
WCI - Wind Chill Index E13G22 Wind - East Wind 13 mph/Gusts of 22 mph

Trending Headlines

Smithland Radar Loop



Smithland Quick Facts


National Two Day Weather Forecast


E-mail the Smithland Weather Forecast

Voice your opinion or tell us about page issues...